Juneau, AK

2:27 AM AKST on February 22, 2017 (GMT -0900)
Juneau International

Weather History for PAJN - June, 2014

Change the Weather History Date:

Tuesday, June 3, 2014

  Actual Average Record
Temperature  
Mean Temperature 49 °F 53 °F  
Max Temperature 50 °F 61 °F 79 °F (1954)
Min Temperature 47 °F 45 °F 31 °F (1971)
Degree Days  
Heating Degree Days 16 12  
Month to date heating degree days 43 36  
Since 1 June heating degree days 43 36  
Since 1 July heating degree days 7815 8072  
Cooling Degree Days 0 0  
Month to date cooling degree days 0 0  
Year to date cooling degree days 0 0  
Since 1 June cooling degree days 0 0  
Moisture  
Dew Point 44 °F    
Average Humidity 87    
Maximum Humidity 93    
Minimum Humidity 80    
Precipitation  
Precipitation 0.16 in 0.11 in 1.01 in (2006)
Month to date precipitation 0.34 0.32  
Year to date precipitation 20.26 19.92  
Sea Level Pressure  
Sea Level Pressure 30.12 in    
Wind  
Wind Speed 1 mph (NNE)    
Max Wind Speed 8 mph    
Max Gust Speed 13 mph    
Visibility 9 miles    
Events Rain    
T = Trace of Precipitation, MM = Missing Value Source: NWS Daily Summary

Daily Weather History Graph

Daily Weather History Graph

Search for Another Location

Airport or City:

Trip Planner

Search our weather history database for the weather conditions in past years. The results will help you decide how hot, cold, wet, or windy it might be!

Date:

Astronomy

Jun. 03, 2014 Rise Set
Actual Time 3:59 AM AKDT 9:54 PM AKDT
Civil Twilight 2:49 AM AKDT 11:05 PM AKDT
Nautical Twilight 1:28 AM AKDT 12:24 AM AKDT
Astronomical Twilight Sun does not rise Sun does not rise
Moon 10:26 AM AKDT (6/3) 12:33 AM AKDT (6/3)
Length of Visible Light 20h 16m
Length of Day
17h 54m
Waxing Crescent, 31% of the Moon is Illuminated
Jun 3
Waxing Crescent
Jun 5
First Quarter
Jun 12
Full
Jun 19
Last Quarter
Jun 27
New

Hourly Weather History & Observations

Time (AKDT) Temp. Dew Point Humidity Pressure Visibility Wind Dir Wind Speed Gust Speed Precip Events Conditions
12:53 AM 48.0 °F 44.1 °F 86% 30.13 in 10.0 mi Calm Calm - 0.00 in Rain Light Rain
1:53 AM 48.0 °F 44.1 °F 86% 30.13 in 10.0 mi Calm Calm - 0.00 in   Overcast
2:53 AM 48.0 °F 44.1 °F 86% 30.13 in 10.0 mi Calm Calm - N/A   Overcast
3:53 AM 48.0 °F 45.0 °F 89% 30.12 in 10.0 mi Calm Calm - 0.00 in Rain Light Rain
4:53 AM 46.9 °F 45.0 °F 93% 30.12 in 10.0 mi Calm Calm - 0.00 in   Overcast
5:53 AM 46.9 °F 45.0 °F 93% 30.12 in 10.0 mi Calm Calm - N/A   Overcast
6:53 AM 48.0 °F 45.0 °F 89% 30.12 in 10.0 mi Calm Calm - 0.00 in   Overcast
7:53 AM 48.0 °F 45.0 °F 89% 30.11 in 10.0 mi Calm Calm - N/A   Overcast
8:53 AM 48.9 °F 45.0 °F 86% 30.10 in 10.0 mi Calm Calm - 0.00 in Rain Light Rain
9:53 AM 50.0 °F 44.1 °F 80% 30.10 in 10.0 mi WNW 3.5 mph - 0.01 in Rain Light Rain
10:53 AM 48.0 °F 44.1 °F 86% 30.11 in 7.0 mi Calm Calm - 0.05 in Rain Light Rain
11:53 AM 48.9 °F 45.0 °F 86% 30.12 in 8.0 mi Calm Calm - 0.04 in Rain Light Rain
12:53 PM 48.9 °F 42.1 °F 77% 30.12 in 10.0 mi West 4.6 mph - 0.00 in Rain Light Rain
1:53 PM 48.0 °F 44.1 °F 86% 30.12 in 8.0 mi Calm Calm - 0.03 in Rain Light Rain
2:51 PM 48.2 °F 42.8 °F 82% 30.13 in 7.0 mi WSW 5.8 mph - 0.02 in Rain Light Rain
3:53 PM 48.0 °F 43.0 °F 83% 30.12 in 10.0 mi NNW 6.9 mph - 0.03 in Rain Light Rain
4:53 PM 48.9 °F 43.0 °F 80% 30.12 in 8.0 mi Calm Calm - 0.00 in Rain Light Rain
5:53 PM 48.9 °F 43.0 °F 80% 30.12 in 8.0 mi Calm Calm - 0.00 in Rain Light Rain
6:21 PM 48.0 °F 45.0 °F 89% 30.12 in 8.0 mi ENE 5.8 mph - 0.00 in Rain Light Rain
6:38 PM 48.0 °F 44.1 °F 86% 30.12 in 8.0 mi ENE 5.8 mph - 0.00 in   Overcast
6:53 PM 48.0 °F 45.0 °F 89% 30.12 in 8.0 mi ENE 3.5 mph - 0.01 in Rain Light Rain
7:04 PM 46.9 °F 44.1 °F 90% 30.12 in 8.0 mi ENE 4.6 mph - 0.00 in Rain Light Rain
7:53 PM 46.9 °F 44.1 °F 90% 30.12 in 8.0 mi Calm Calm - 0.00 in Rain Light Rain
8:53 PM 46.9 °F 43.0 °F 86% 30.12 in 8.0 mi Calm Calm - 0.01 in Rain Light Rain
9:53 PM 46.4 °F 44.6 °F 93% 30.13 in 8.0 mi Calm Calm - N/A   Overcast
10:18 PM 46.0 °F 44.1 °F 93% 30.13 in 10.0 mi Calm Calm - N/A   Overcast
10:53 PM 46.0 °F 44.1 °F 93% 30.14 in 10.0 mi Calm Calm - 0.00 in Rain Light Rain
11:53 PM 45.0 °F 44.1 °F 97% 30.14 in 10.0 mi Calm Calm - 0.00 in Rain Light Rain